Regional Weather Roundup
Issued by NWS Boston, MA

Current Version | Previous Version | Text Only | Print | Product List | Glossary On
Versions: 1 2 3 4 5 6 7 8 9 10 11 12 13 14 15 16 17 18 19 20 21 22 23 24 25 26 27 28 29 30 31 32 33 34 35 36 37 38 39 40 41 42 43 44 45 46 47 48 49
000
ASUS41 KBOX 011610
RWRBOX

REGIONAL WEATHER ROUNDUP
NATIONAL WEATHER SERVICE TAUNTON MA
1200 PM EDT WED OCT 01 2014

NOTE:  "FAIR" INDICATES FEW OR NO CLOUDS BELOW 12,000 FEET WITH NO
SIGNIFICANT WEATHER AND/OR OBSTRUCTIONS TO VISIBILITY.  THE FOLLOWING
OBSERVATION LOCATIONS DO NOT REPORT PRESENT WEATHER...PROVINCETOWN...
SMITHFIELD...BLOCK ISLAND...KEENE...AND OXFORD.

MAZALL-011700-
EASTERN MASSACHUSETTS

CITY           SKY/WX    TMP DP  RH WIND       PRES   REMARKS
BOSTON         RAIN      57  56  96 N15       30.08R FOG
BEVERLY        RAIN      57  54  89 NE12G18   30.08S
LAWRENCE       CLOUDY    57  55  93 NE7       30.12R
BEDFORD        LGT RAIN  56  55  97 NE6       30.09R FOG
BLUE HILL        N/A     55  55 100 NE9G17    30.08R
NORWOOD        HVY RAIN  58  56  93 N7        30.08R FOG
MARSHFIELD     NOT AVBL
PLYMOUTH       HVY RAIN  59  58  96 N14G24    30.05R FOG
TAUNTON        HVY RAIN  59  57  93 MISG      30.05S FOG
NEW BEDFORD    RAIN      59  58  96 N8        30.03S FOG
$$

MAZALL-011700-
CAPE COD AND THE ISLANDS

CITY           SKY/WX    TMP DP  RH WIND       PRES   REMARKS
FALMOUTH       LGT RAIN  61  59  94 NE15G22   30.02S
HYANNIS        CLOUDY    62  61  96 N12       30.01R
CHATHAM        CLOUDY    62  60  93 NE10G18   30.01S
PROVINCETOWN   CLOUDY    61  57  88 NE16      30.05R
NANTUCKET      LGT RAIN  63  61  93 NE17      29.98S
MARTHAS VNYRD  CLOUDY    62  60  93 NE17G23   30.00S
$$

MAZALL-011700-
CENTRAL AND WESTERN MASSACHUSETTS

CITY           SKY/WX    TMP DP  RH WIND       PRES   REMARKS
WORCESTER      FOG       54  54 100 N10G18    30.09R VSB 1/4
FITCHBURG      CLOUDY    58  55  90 N7        30.11S FOG
ORANGE         CLOUDY    58  56  93 N7        30.10S
SPRINGFIELD    LGT RAIN  60  57  91 N8        30.08R
WESTFIELD      LGT RAIN  60  56  86 N8        30.08S
NORTH ADAMS    CLOUDY    59  56  89 CALM      30.11S
PITTSFIELD     LGT RAIN  57  55  93 N6        30.09F
$$

RIZALL-011700-
RHODE ISLAND

CITY           SKY/WX    TMP DP  RH WIND       PRES   REMARKS
PROVIDENCE     RAIN      59  57  93 N10       30.05S FOG
NEWPORT        RAIN      61  57  87 N15       30.02S FOG
BLOCK ISLAND   CLOUDY    61  55  82 NE13G23   30.01F
SMITHFIELD     CLOUDY    57  50  77 NE23      30.02F
WESTERLY       CLOUDY    61  57  87 N8G17     30.03S
$$

CTZALL-011700-
CONNECTICUT

CITY           SKY/WX    TMP DP  RH WIND       PRES   REMARKS
BRADLEY INTL   LGT RAIN  61  57  87 N13       30.06F
HARTFORD       LGT RAIN  60  58  92 N9        30.06F
BRIDGEPORT     LGT RAIN  62  59  90 N12       30.05S
DANBURY        LGT RAIN  60  57  89 NE3       30.08S FOG
GROTON         LGT RAIN  59  58  96 N10       30.02S FOG
NEW HAVEN      LGT RAIN  62  58  86 N12       30.04S
CHESTER        NOT AVBL
MERIDEN        LGT RAIN  60  57  89 N6        30.06S FOG
WILLIMANTIC    LGT RAIN  59  57  93 N6        30.07R
OXFORD         LGT RAIN  57  54  88 NE9       30.08S FOG
$$

MEZ002-015-021-024-NHZ003-005-008-011-012-014-VTZ005-008-011700-
NORTHERN NEW ENGLAND

CITY           SKY/WX    TMP DP  RH WIND       PRES   REMARKS
PORTLAND ME    CLOUDY    57  53  86 NE8       30.13F
BANGOR ME      CLOUDY    58  50  75 VRB7      30.17S
CONCORD NH     LGT RAIN  56  55  97 N6        30.12S FOG
MANCHESTER NH  LGT RAIN  58  54  86 NE9       30.10R FOG
NASHUA NH      LGT RAIN  57  57 100 NE6       30.12R VSB 1
PORTSMOUTH NH  DRZL/FOG  57  55  93 N10       30.10S VSB 1
JAFFREY NH     LGT RAIN  55  54  96 VRB6      30.12S FOG
KEENE NH       CLOUDY    57  50  77 N5        30.12S
BURLINGTON VT  FOG       55  52  89 NW8       30.16S VSB 3/4
MT. WASHINGTON CLOUDY    46  37  71 SE9         N/A
$$

NYZ052-076-011700-
EASTERN NEW YORK

CITY           SKY/WX    TMP DP  RH WIND       PRES   REMARKS
ALBANY         CLOUDY    63  57  81 N3        30.11S
NEW YORK CITY  CLOUDY    64  58  80 NE8       30.05S
$$

ANZALL-011700-
MARINE OBSERVATIONS

STATION/POSITION TIME  TEMP    WIND        PRES    VSBY  WAVE
                       AIR SEA DIR/SP/G                  HT/PER
                 (UTC) (F)     (DEG/KT/KT) (MB)    (MI)  (FT/S)
BOSTON BUOY      1550   57 60   30/ 21/ 23 1018.0R         5/ 6
BUZZARDS BAY     1500           10/ 18/ 20 1016.4R
NANTUCKET SOUND  1550   62 64   30/ 17/ 19 1015.3R         3/ 4
MASS BAY-STELLWA 1504   58 60   30/ 23/ 27   N/A    1 3/4  6/ 6
ISLE OF SHOALS   1600   56      40/ 20/ 22 1018.5R
S OF BLOCK IS    1508      67                N/A           4/ 4
$$

......................KEY.........................
  SKY/WX - SKY CONDITION/PRESENT WEATHER
  TMP    - TEMPERATURE IN FAHRENHEIT
  DWPT   - DEWPOINT IN FAHRENHEIT
  RH     - RELATIVE HUMIDITY IN PERCENT
  WIND   - DIRECTION AND SPEED IN MPH
  PRES   - MEAN SEA LEVEL PRESSURE IN INCHES OF HG
  WCI    - WIND CHILL INDEX
  VSB    - VISIBILITY IN MILES
  HX     - HEAT INDEX
  TC     - TEMPERATURE IN CELSIUS
  VRB    - VARIABLE WIND DIRECTION
  N/A    - NOT AVAILABLE


USA.gov is the U.S. government's official web portal to all federal, state and local government web resources and services.